Starlink 36308

operational
NORAD ID: 68544 Int'l Des: 2026-070 Owner: SPXS Country: US Constellation: starlink
LEOCIRCULAR

关于 Starlink 36308

正在加载描述...

实时位置

正在加载3D地球...

即将过境

高度历史

Altitude vs Time

uPlot chart will show altitude changes over time

两行轨道根数

1 68544C 26070B 26093.89979167 -.00069599 00000+0 -85960-4 0 934
2 68544 53.1621 259.5995 0008190 282.9756 289.0812 16.07084898 10
Epoch: Apr 3, 2026 • Age: 30 hours

当前状态

高度 263.8 km
速度 7.75 km/s
星下点 40.71°N, 112.42°E
发射日期 Apr 2, 2026
运行时间 1 days
类型 internet

技术详情

分类 Payload
质量 575.00 kg
干质量 530.00 kg
总质量 575.00 kg
长度 0.30 m
直径 4.10 m
跨度 29.00 m
形状 Box + pan
制造商 SPXS
平台类型 Starlink V2MO
阶段状态 In Orbit
所有者/国家 SPXS/US

大型星座

Loading constellations...